Regional Weather Roundup
Issued by NWS Cleveland, OH

Home | Current Version | Previous Version | Text Only | Print | Product List | Glossary Off
Versions: 1 2 3 4 5 6 7 8 9 10 11 12 13 14 15 16 17 18 19 20 21 22 23 24 25 26 27 28 29 30 31 32 33 34 35 36 37 38 39 40 41 42 43 44 45 46 47 48 49 50

000
ASUS41 KCLE 232110
RWRCLE
OHIO REGIONAL WEATHER ROUNDUP
NATIONAL WEATHER SERVICE WILMINGTON, OH
500 PM EDT TUE MAY 23 2017

NOTE: "FAIR" INDICATES FEW OR NO CLOUDS BELOW 12,000 FEET WITH NO
SIGNIFICANT WEATHER AND/OR OBSTRUCTIONS TO VISIBILITY.

OHZ001>008-015>018-024>027-034-035-043-044-232200-
   NORTHWEST OHIO

CITY           SKY/WX    TMP DP  RH WIND       PRES   REMARKS
DEFIANCE       FAIR      72  42  34 E7        29.72F
FINDLAY        FAIR      74  45  35 E8        29.70F
TOLEDO EXPRESS PTSUNNY   71  49  45 E13       29.73F
TOLEDO EXEC    PTSUNNY   69  50  50 NE12      29.75F
LIMA           FAIR      70  49  47 E5        29.71F
$$

OHZ009>014-019>023-028>033-038-089-232200-
   NORTHEAST OHIO

CITY           SKY/WX    TMP DP  RH WIND       PRES   REMARKS
CLE-HOPKINS    PTSUNNY   71  49  45 NE16      29.76F
CLE-LAKEFRONT  FAIR      63  52  67 NE17      29.74F
CUY CO. ARPT   MOSUNNY   75  46  35 SE9       29.75F
LORAIN-ELYRIA  FAIR      72  47  40 NE12      29.73F
ASHTABULA      FAIR      74  46  36 SE10      29.77F
AKRON-CANTON   PTSUNNY   74  47  38 SE9       29.75F
WOOSTER        FAIR      73  47  39 E10       29.73F
MANSFIELD      FAIR      72  45  37 SE8       29.73F
YOUNGSTOWN     PTSUNNY   73  45  36 SE12G17   29.77F
$$

OHZ042-051>053-060>062-070>072-077>081-232200-
  SOUTHWEST OHIO

CITY           SKY/WX    TMP DP  RH WIND       PRES   REMARKS
CINC-COVINGTON CLOUDY    73  50  44 S5        29.69F
CINC-LUNKEN    PTSUNNY   75  52  44 S7        29.68F
HAMILTON       FAIR      75  51  43 S3        29.69F
DAYTON         CLOUDY    72  48  42 S8        29.71F
WRIGHT-PAT AFB CLOUDY    74  46  36 E8        29.69F
DAYTON GENERAL FAIR      73  47  39 CALM      29.69F
WILMINGTON     CLOUDY    73  50  44 VRB5      29.69F
$$

OHZ036-037-039>041-045>050-054>059-063>069-073>076-082>088-232200-
  CENTRAL AND SOUTHEAST OHIO

CITY           SKY/WX    TMP DP  RH WIND       PRES   REMARKS
COLUMBUS       CLOUDY    74  48  39 E8        29.70F
OSU AIRPORT    FAIR      73  48  41 SE10      29.71F
BOLTON FIELD   SUNNY     73  52  46 CALM      29.71F
RICKENBACK AFB FAIR      73  47  40 E8        29.70F
NEWARK         FAIR      75  44  33 E5        29.71F
MARION         FAIR      75  44  33 E7        29.72F
LANCASTER      FAIR      74  50  42 SE7       29.71F
ZANESVILLE     FAIR      73  49  42 SE8       29.72F
NEW PHILLY     FAIR      75  47  36 SE10      29.73F
$$




USA.gov is the U.S. government's official web portal to all federal, state and local government web resources and services.